sat.trackr.live / text

‹ back to catalog

QIANFAN-164

NORAD 69326 · 2026-121B

PAYLOAD ACTIVE UNKNOWN

§ Identity

Operator
Country
PRC
Launch date
2026-06-01
Launch site
JSC
Launch vehicle
Mass (kg)
RCS (m²)

External: N2YO · Heavens-Above · Gunter

§ Orbital elements

Epoch: 2026-09-19T18:38:52.357632Z

Period
106.59 min
Inclination
89.0099°
Eccentricity
0.0002073
Mean motion
13.51021485 rev/d
Perigee alt
1,067.0 km
Apogee alt
1,070.0 km
Semi-major
7,446.6 km
B*
5.1314e-5
RAAN
291.0885°
Arg perigee
110.9862°
Mean anomaly
249.1511°
Rev number
1,494

§ Raw data

QIANFAN-1641 69326U 26121B   26262.77699488  .00000045  00000+0  51314-4 0  99902 69326  89.0099 291.0885 0002073 110.9862 249.1511 13.51021485 14946

JSON: /api/v1/satellites/69326 · /tle

For live sub-satellite position, see the globe view (requires WebGL).

§ Visibility from observer

Set your observer location to see the next 7 days of passes ≥ 10°. The values pass through the URL so the page stays shareable.

No JS? Fill the form by hand. The geolocation button needs JavaScript.